Regional Weather Roundup
Issued by NWS Goodland, KS

Home | Current Version | Previous Version | Text Only | Print | Product List | Glossary Off
Versions: 1 2 3 4 5 6 7 8 9 10 11 12 13 14 15 16 17 18 19 20 21 22 23 24 25 26 27 28 29 30 31 32 33 34 35 36 37 38 39 40 41 42 43 44 45 46 47 48 49 50

000
ASUS43 KGLD 180408
RWRGLD

GOODLAND FORECAST AREA HOURLY WEATHER ROUNDUP
NATIONAL WEATHER SERVICE GOODLAND KS
1000 PM MDT THU APR 17 2014

...OFFICIAL OBSERVATIONS...

CITY           SKY/WX    TMP DP  RH WIND       PRES   REMARKS
GOODLAND KS    CLEAR     41  38  89 S18       30.15R
HILL CITY KS   CLEAR     45  31  58 S6        30.21R
IMPERIAL NEB   CLEAR     47  37  68 S20G30    30.11R
MCCOOK NEB     CLEAR     46  34  62 S13       30.16S
AKRON CO       CLEAR     45  36  70 S21G30    30.05R
BURLINGTON CO  CLEAR     41  37  86 S20       30.13R
LIMON CO       CLEAR     40  34  79 S15       30.12R
$$

...UNOFFICIAL OBSERVATIONS...

CITY           SKY/WX    TMP DP  RH WIND       PRES   REMARKS
COLBY KS       CLEAR     45  41  87 S14       30.18S
GOVE KS          N/A     43  32  65 S7          N/A
LENORA KS        N/A     42  32  68 SE9         N/A
LEOTI KS         N/A     43  32  65 S12         N/A
NORTON KS      CLEAR     39  28  65 SE7       30.18S
OBERLIN KS     FAIR      45  36  70 S10       30.16S
SHARON SPRINGS   N/A     41  38  87 S15         N/A
ST FRANCIS KS  CLEAR     43  36  75 S14       30.13R
WAKEENEY KS      N/A     46  32  58 MISG        N/A
TRENTON NEB      N/A     43  32  65 S12         N/A
KIT CARSON CO    N/A     40  36  87 MISG        N/A
$$



USA.gov is the U.S. government's official web portal to all federal, state and local government web resources and services.